User: anonymous   Login
Location: Julian California
(33.0790°N, 116.6010°W)
Time: 08:18:45
(UTC-07:00)
Language:

Cosmos 2058 - Orbit

View from above orbital plane
View from above orbital plane
View from above satellite
View from above satellite

Ground track
Ground track

The orbit data is extracted from the following two-line orbital elements,

1 20465U 90010A   19108.66320143  .00000274  00000-0  20990-4 0  9998
2 20465  82.4880 323.0204 0015106 190.4346 169.6566 14.97856797585698
Epoch (UTC): 18 April 2019 15:55:00
Eccentricity: 0.0015106
inclination: 82.4880°
perigee height: 563 km
apogee height: 584 km
right ascension of ascending node: 323.0204°
argument of perigee: 190.4346°
revolutions per day: 14.97856797
mean anomaly at epoch: 169.6566°
orbit number at epoch: 58569

The dashed part of the orbit path shows where the satellite is in the earth's shadow,  

DLR